sat.trackr.live / text

‹ back to catalog

STARLINK-3054

NORAD 49167 · 2021-082AP

PAYLOAD ACTIVE UNKNOWN

§ Identity

Operator
Country
US
Launch date
2021-09-14
Launch site
AFWTR
Launch vehicle
Mass (kg)
RCS (m²)

Purposes: comms

External: N2YO · Heavens-Above · Gunter

§ Orbital elements

Epoch: 2026-09-20T03:15:22.966272Z

Period
96.11 min
Inclination
69.9994°
Eccentricity
0.0002681
Mean motion
14.98329371 rev/d
Perigee alt
570.2 km
Apogee alt
573.9 km
Semi-major
6,950.2 km
B*
6.7222e-5
RAAN
164.1814°
Arg perigee
271.4567°
Mean anomaly
88.6285°
Rev number
27,630

§ Raw data

STARLINK-30541 49167U 21082AP  26263.13568248  .00000709  00000+0  67222-4 0  99942 49167  69.9994 164.1814 0002681 271.4567  88.6285 14.98329371276301

JSON: /api/v1/satellites/49167 · /tle

For live sub-satellite position, see the globe view (requires WebGL).

§ Visibility from observer

Set your observer location to see the next 7 days of passes ≥ 10°. The values pass through the URL so the page stays shareable.

No JS? Fill the form by hand. The geolocation button needs JavaScript.